Printer-friendly version
Follow the MPC on Twitter Follow the MPC on Facebook The MPC blog
Minor Planet Center

MPEC 2000-X10 : 2000 WK107

The following Minor Planet Electronic Circular may be linked-to from your own Web pages, but must not otherwise be redistributed electronically.

A form allowing access to any MPEC is at the bottom of this page.


Read MPEC 2000-X09 Read MPEC 2000-X11


M.P.E.C. 2000-X10                                Issued 2000 Dec. 1, 19:10 UT

     The Minor Planet Electronic Circulars contain information on unusual
         minor planets and routine data on comets.  They are published
   on behalf of Commission 20 of the International Astronomical Union by the
          Minor Planet Center, Smithsonian Astrophysical Observatory,
                          Cambridge, MA 02138, U.S.A.

             Prepared using the Tamkin Foundation Computer Network

                              MPC@CFA.HARVARD.EDU
          URL http://cfa-www.harvard.edu/iau/mpc.html  ISSN 1523-6714

                                  2000 WK107

Observations:
     K00WA7K* C2000 11 28.19644 02 25 18.03 +15 20 19.5          20.4 V      691
     K00WA7K  C2000 11 28.22840 02 25 15.94 +15 19 32.7          20.0 V      691
     K00WA7K  C2000 11 28.25862 02 25 13.93 +15 18 48.8          20.7 V      691
     K00WA7K  C2000 11 29.20609 02 24 16.07 +14 55 46.0          20.6 V      691
     K00WA7K  C2000 11 29.21026 02 24 15.81 +14 55 40.0          20.7 V      691
     K00WA7K  C2000 11 29.21412 02 24 15.56 +14 55 34.4          20.6 V      691
     K00WA7K  C2000 11 29.21883 02 24 15.21 +14 55 28.3          19.9 R      853
     K00WA7K  C2000 11 29.21994 02 24 15.16 +14 55 26.9          19.8 R      853
     K00WA7K  C2000 11 29.22100 02 24 15.08 +14 55 25.5          19.7 R      853
     K00WA7K  C2000 11 29.22221 02 24 15.01 +14 55 23.5          20.1 R      853
     K00WA7K  C2000 12 01.37519 02 22 09.25 +14 03 19.3          20.7 V      691
     K00WA7K  C2000 12 01.37902 02 22 09.01 +14 03 14.0          20.6 V      691
     K00WA7K  C2000 12 01.38285 02 22 08.77 +14 03 08.4          20.5 V      691

Observer details:
691 Steward Observatory, Kitt Peak.  Observers R. S. McMillan, J. A. Larsen.
    0.9-m Spacewatch telescope.
853 Biosphere 2 Observatory.  Observer G. J. Garradd.  0.6-m f/8.1 reflector
    + CCD.

Orbital elements:
2000 WK107
Epoch 2000 Nov. 12.0 TT = JDT 2451860.5                 Spahr
M 321.47929              (2000.0)            P               Q
n   0.24623609     Peri.  272.18333     -0.76229763     -0.55972627
a   2.5209733      Node   233.95919     +0.62542435     -0.76625746
e   0.5278451      Incl.   23.69697     -0.16657340     -0.31552498
P   4.00           H   18.5           G   0.15
From 13 observations 2000 Nov. 28-Dec. 1.

Ephemeris:
2000 WK107               a,e,i = 2.52, 0.53, 24                  q = 1.1903
Date    TT    R. A. (2000) Decl.     Delta      r     Elong.  Phase     V
2000 11 22    02 32.25   +17 51.1    0.955    1.917   161.2     9.6    20.4
2000 12 02    02 21.59   +13 48.4    0.941    1.850   147.6    16.6    20.6
2000 12 12    02 14.43   +09 59.6    0.949    1.783   134.4    23.2    20.7
2000 12 22    02 11.61   +06 42.8    0.974    1.715   122.4    29.0    20.9
2001 01 01    02 13.35   +04 06.4    1.010    1.649   111.6    33.7    21.0
2001 01 11    02 19.45   +02 10.0    1.050    1.584   102.3    37.4    21.1
2001 01 21    02 29.50   +00 48.3    1.089    1.520    94.2    40.2    21.2
2001 01 31    02 43.14   -00 04.8    1.124    1.459    87.3    42.4    21.2
2001 02 10    03 00.01   -00 36.2    1.152    1.401    81.4    44.1    21.2

Timothy B. Spahr             (C) Copyright 2000 MPC           M.P.E.C. 2000-X10

Read MPEC 2000-X09 Read MPEC 2000-X11


MPEC number:

Enter an MPEC number in one of the following forms:

  • 1997-B01 (the full form)
  • J97B01 (the packed version of the full form)
  • B01 (the abbreviated form)

Valid HTML 4.01!